Location: *
(58.7167°N, 26.1833°E)
Time: 14:31:37
(UTC+00:00)

COSMOS 2428 - Pass Details

Date: 25 August 2019
Orbit: 846 x 855 km, 70.9° (Epoch: 19 September)

Event Time Altitude Azimuth Distance (km) Brightness Sun altitude
Rises 23:31:43 0° 318° (NW) 3,424 6.3 -19.1°
Reaches altitude 10° 23:35:05 10° 298° (WNW) 2,482 5.2 -18.9°
Maximum altitude 23:38:25 16° 262° (W) 2,068 4.4 -18.8°
Enters shadow 23:39:01 16° 254° (WSW) 2,081 4.4 -18.7°
